Flag Weather past 2 weeks in Bălți, Moldova

Now
23 °F

Cold.


Feels Like: 17 °F
Forecast: 20 / 27 °F
Wind: 5 mph from Northeast

Location: Baltsi-Leadoveni - The North of Moldova

Current Time: Nov 25, 2014 at 3:54:06 AM

Latest Report: Nov 25, 2014 at 3:00 AM


Visibility: 3 mi

Pressure: 30.48 "Hg

Humidity: 93%

Dew point: 21 °F

Location of BălțiLocation

Historic Weather in Bălți — Graph

°F

Bălți temperature yesterday

Maximum temperature yesterday: 32 °F (at 12:00 AM)
Minimum temperature yesterday: 25 °F (at 11:00 PM)
Average temperature yesterday: 30 °F

Past Weeks' High & Low Weather Summary

 TemperatureHumidityPressure
High59 °F (Nov 10, 1:00 PM)100% (Nov 11, 6:00 AM)30.51 "Hg (Nov 11, 6:00 AM)
Low23 °F (Nov 25, 2:30 AM)50% (Nov 10, 6:00 PM)30.01 "Hg (Nov 20, 1:00 AM)
Average38 °F90%30.18 "Hg
* Reported Nov 10 9:30 AM — Nov 25 3:00 AM, Bălți, Weather by CustomWeather, © 2014

Note: Actual official high and low records may vary slightly from our data, if they occured in-between our weather recording intervals... More about our weather records

Advertising

Bălți weather history for previous 24 hours

 ConditionsComfort  
Time TempWeatherWind HumidityBarometerVisibility
3:00 AM
Nov 25
23 °FCold.5 mph93%30.48 "Hg3 mi
2:30 AM23 °FCold.6 mph93%30.48 "Hg3 mi
1:00 AM25 °FCold.6 mph93%30.48 "Hg2 mi
12:00 AM25 °FCold.7 mph93%30.51 "Hg3 mi
11:30 PM
Nov 24
25 °FCold.8 mph93%30.51 "Hg3 mi
11:00 PM25 °FCold.7 mph93%30.51 "Hg3 mi
10:00 PM27 °FChilly.10 mph93%30.51 "Hg3 mi
9:00 PM27 °FChilly.9 mph93%30.51 "Hg3 mi
8:30 PM27 °FChilly.10 mph93%30.51 "Hg2 mi
8:00 PM28 °FChilly.10 mph93%30.51 "Hg1 mi
7:30 PM28 °FChilly.10 mph93%30.51 "Hg1 mi
7:00 PM28 °FChilly.12 mph93%30.51 "Hg2 mi
6:30 PM28 °FChilly.10 mph93%30.51 "Hg2 mi
6:00 PM30 °FChilly.9 mph86%30.48 "Hg3 mi
5:00 PM30 °FChilly.10 mph93%30.48 "Hg4 mi
4:30 PM32 °FPassing clouds.9 mph87%30.48 "Hg4 mi
4:00 PM32 °FBroken clouds.6 mph87%30.48 "Hg4 mi
3:30 PM32 °FMore clouds than sun.8 mph87%30.48 "Hg5 mi
3:00 PM32 °FMore clouds than sun.7 mph87%30.48 "Hg5 mi
2:30 PM32 °FMore clouds than sun.6 mph87%30.48 "Hg5 mi
2:00 PM32 °FMore clouds than sun.6 mph87%30.48 "Hg5 mi
1:30 PM32 °FMostly cloudy.7 mph87%30.48 "Hg5 mi
1:00 PM32 °FMostly cloudy.8 mph87%30.48 "Hg4 mi
12:00 PM32 °FIce fog.7 mph87%30.51 "Hg3 mi
11:00 AM30 °FIce fog.7 mph93%30.51 "Hg2 mi
10:00 AM32 °FIce fog.8 mph93%30.48 "Hg3 mi
9:00 AM30 °FLight snow. Ice fog.6 mph100%30.48 "Hg2 mi
8:00 AM30 °FChilly.7 mph100%30.48 "Hg2 mi
7:00 AM30 °FChilly.8 mph93%30.45 "Hg3 mi
6:30 AM30 °FChilly.8 mph100%30.45 "Hg2 mi
6:00 AM30 °FChilly.10 mph100%30.45 "Hg1 mi
5:00 AM30 °FChilly.8 mph100%30.45 "Hg1 mi
4:00 AM32 °FChilly.8 mph93%30.45 "Hg1 mi
3:00 AM32 °FChilly.8 mph93%30.42 "Hg1 mi
Weather by CustomWeather, © 2014

See weather overviewHow to use our weather pages